Regional Weather Roundup
Issued by NWS

Home | Current Version | Previous Version | Text Only | Print | Product List | Glossary Off
Versions: 1 2 3 4 5 6 7 8 9 10 11 12 13 14 15 16 17 18 19 20 21 22 23 24 25 26 27 28 29 30 31 32 33 34 35 36 37 38 39 40 41 42 43 44 45 46 47 48 49 50

000
ASUS43 KLOT 311502
RWRIL

ILLINOIS REGIONAL WEATHER ROUNDUP
NATIONAL WEATHER SERVICE CHICAGO/ROMEOVILLE IL
1000 AM CDT MON AUG 31 2015

NOTE: "FAIR" INDICATES FEW OR NO CLOUDS BELOW 12,000 FEET WITH NO
SIGNIFICANT WEATHER AND/OR OBSTRUCTIONS TO VISIBILITY.

* THESE STATIONS ARE NOT UNDER NWS QUALITY CONTROL. THEY ALSO MAY NOT
  REPORT WEATHER SUCH AS PRECIPITATION OR FOG.

ILZ001-002-007-009-015-016-024-311600-
NORTHWEST ILLINOIS

CITY           SKY/WX    TMP DP  RH WIND       PRES   REMARKS
MOLINE         SUNNY     76  70  82 E3        30.04S
STERLING*        N/A    N/A N/A N/A MISG        N/A
$$

ILZ003-004-008-010-011-017-018-311600-
NORTH CENTRAL ILLINOIS

CITY           SKY/WX    TMP DP  RH WIND       PRES   REMARKS
ROCKFORD       SUNNY     72  66  81 S3        30.09S
FREEPORT*      SUNNY     69  69  97 S6        30.09S
$$

ILZ005-006-012>014-019>023-311600-
NORTHEAST ILLINOIS

CITY           SKY/WX    TMP DP  RH WIND       PRES   REMARKS
CHICAGO-OHARE  SUNNY     74  66  76 CALM      30.08R
CHICAGO-MIDWAY SUNNY     77  67  71 CALM      30.08R
AURORA         SUNNY     74  68  81 CALM      30.10R HAZE
LANSING*       SUNNY     72  69  89 CALM      30.10R FOG
WAUKEGAN       SUNNY     71  66  84 CALM      30.08R
DUPAGE AIRPORT SUNNY     73  67  81 CALM      30.09R
WHEELING       SUNNY     69  65  86 CALM      30.09S
NORTHERLY ISL    N/A     71  66  84 E3          N/A
$$

LMZ740>746-311600-
SOUTHERN LAKE MICHIGAN

STATION/POSITION SKY/WX   TEMP    WIND        PRES    VSBY  WAVE
                          AIR SEA DIR/SP/G                  HT/PER
                          (F)     (DEG/KT/KT) (MB)    (MI)  (FT/S)
SOUTHERN BUOY              66 69  280/  4/  4 1018.7R         0
WILMETTE HARBOR            60 60     CALM       N/A           0
BURNHAM HARBOR             72      CALM  /  4   N/A
BURNS HARBOR               70     240/  2/  2 1019.3R
$$

ILZ025>027-034>036-040-047-049-050-058-095>099-311600-
WEST-CENTRAL ILLINOIS

CITY           SKY/WX    TMP DP  RH WIND       PRES   REMARKS
QUINCY         SUNNY     80  71  74 SW6       30.05S HX  84
$$

ILZ028>032-037-038-041>044-048-051>054-059>061-311600-
CENTRAL ILLINOIS

CITY           SKY/WX    TMP DP  RH WIND       PRES   REMARKS
DECATUR        SUNNY     80  71  74 VRB3      30.09R HX  84
PEORIA         SUNNY     80  71  74 VRB5      30.07R HX  84
SPRINGFIELD    SUNNY     80  72  76 SW6       30.08R HX  84
TAYLORVILLE    NOT AVBL
$$

ILZ033-039-045-046-055>057-062-063-311600-
EAST-CENTRAL ILLINOIS

CITY           SKY/WX    TMP DP  RH WIND       PRES   REMARKS
CHAMPAIGN      MOSUNNY   78  70  76 VRB6      30.11R HX  80
MATTOON        CLOUDY    71  67  87 SE7       30.11R
$$

ILZ079-100>102-311600-
SOUTHWEST ILLINOIS

CITY           SKY/WX    TMP DP  RH WIND       PRES   REMARKS
BELLEVILLE     SUNNY     78  75  90 VRB2      30.08S HX  81
CAHOKIA*       SUNNY     80  70  71 S6        30.07S HX  83
$$

ILZ064>066-069>071-074>076-080>082-084>086-088>090-092>094-311600-
SOUTH-CENTRAL ILLINOIS

CITY           SKY/WX    TMP DP  RH WIND       PRES   REMARKS
CARBONDALE     PTSUNNY   79  69  71 S12       30.11S HX  81
MARION         SUNNY     79  70  73 S6        30.13R HX  81
MT. VERNON     MOSUNNY   79  68  69 SW9       30.12S HX  81
$$

ILZ067-068-072-073-078-083-087-091-311600-
SOUTHEAST ILLINOIS

CITY           SKY/WX    TMP DP  RH WIND       PRES   REMARKS
LAWRENCEVILLE  PTSUNNY   78  69  73 SW7       30.13S HX  80
FLORA*         SUNNY     76  68  76 SW8       30.12S
ROBINSON*      MOSUNNY   76  69  79 SW5       30.14S
$$

ABBREVIATIONS USED IN REMARKS
   TC - TEMPERATURE IN CELSIUS
  WCI - WIND CHILL INDEX
   HX - HEAT INDEX
  VSB - VISIBILITY
$$




USA.gov is the U.S. government's official web portal to all federal, state and local government web resources and services.